[[{"header":{"parameterUnit":"m.s-1","parameterCategory":1,"la1":30.2991,"la2":30.254,"lo1":-89.0895,"lo2":-89.0444,"dy":0.0017,"dx":0.0017,"nx":28,"ny":28,"refTime":"2024-06-13T03:00:00:Z","depth":0,"parameterNumber":2,"parameterNumberName":"U-component_of_WINDS"},"data":[0,0,0,0,0,0,0,0,0,0,0,0,0,0,0,0,0,0,0,0,0,0,0,0,0,0,0,0,0,0,0,0,0,0,0,0,0,0,0,0,0,0,0,0,0,0,0,0,0,0,0,0,0,0,0,0,0,0,-0.5262,-0.5262,0,-0.5266,-0.5266,-0.5266,-0.5243,-0.5243,-0.5242,-0.5241,-0.5246,-0.5247,-0.5248,0,0,0,0,0,0,0,0,0,0,0,0,0,-0.5237,-0.5238,-0.5262,-0.5262,-0.5262,-0.5266,-0.5266,-0.5266,-0.5243,-0.5243,-0.5242,-0.5241,-0.5246,-0.5247,-0.5248,0,0,0,0,0,0,0,0,0,0,0,0,0,-0.5245,-0.5238,-0.5262,-0.5251,-0.525,-0.5266,-0.5266,-0.5266,-0.5244,-0.5243,-0.5242,-0.5241,-0.5246,-0.5247,-0.5248,-0.5274,0,0,-0.5251,-0.5252,0,0,0,0,0,0,0,0,-0.5245,-0.5246,-0.5253,-0.5252,-0.5251,-0.5253,-0.5259,-0.5269,-0.5244,-0.5246,-0.5241,-0.524,-0.5249,-0.525,-0.5253,-0.5274,-0.5274,-0.5251,-0.5252,-0.5252,-0.5253,0,0,0,0,0,0,0,-0.5244,-0.5246,-0.5264,-0.5253,-0.5252,-0.5247,-0.5247,-0.5261,-0.5253,-0.5246,-0.5244,-0.5245,-0.5249,-0.5252,-0.5253,-0.5274,-0.5251,-0.5252,-0.5253,-0.5253,-0.5319,-0.532,0,0,0,0,0,0,-0.5245,-0.5246,-0.5264,-0.5264,-0.5245,-0.5248,-0.5248,-0.5254,-0.5253,-0.5252,-0.5246,-0.5244,-0.525,-0.5252,-0.5253,-0.5285,-0.5252,-0.5253,-0.5254,-0.5318,-0.5319,-0.532,0,0,0,0,0,0,-0.5244,-0.5247,-0.5263,-0.5254,-0.5256,-0.525,-0.5256,-0.5254,-0.5257,-0.5253,-0.5252,-0.525,-0.525,-0.5251,-0.5269,-0.5285,-0.5254,-0.5255,-0.5317,-0.5318,-0.532,-0.5348,0,0,0,0,0,0,-0.5244,-0.5247,-0.5256,-0.5255,-0.5257,-0.5279,-0.5257,-0.5255,-0.5259,-0.5257,-0.5257,-0.5256,-0.5249,-0.5268,-0.527,-0.5285,-0.5256,-0.5315,-0.5317,-0.5319,-0.5346,-0.535,-0.5354,0,0,0,0,0,-0.5243,-0.5264,-0.5257,-0.5259,-0.5268,-0.528,-0.5281,-0.5273,-0.526,-0.527,-0.5268,-0.5256,-0.5282,-0.527,-0.5272,-0.5288,-0.5314,-0.5317,-0.5319,-0.5344,-0.5349,-0.5354,0,0,0,0,0,0,-0.5268,-0.5263,-0.5256,-0.5276,-0.5279,-0.5276,-0.5288,-0.5279,-0.5285,-0.5283,-0.5272,-0.5272,-0.5292,-0.5292,-0.5278,-0.5314,-0.5296,-0.5299,-0.5314,-0.5319,-0.5324,-0.5324,-0.5257,0,0,0,0,0,-0.5275,-0.5285,-0.5281,-0.53,-0.5301,-0.5295,-0.53,-0.5293,-0.5295,-0.5296,-0.5295,-0.5298,-0.5307,-0.5313,-0.5321,-0.5345,-0.5346,-0.5357,-0.5362,-0.5365,-0.5369,-0.5383,-0.5388,-0.5328,-0.5328,-0.5328,0,0,-0.5292,-0.5291,-0.5297,-0.5305,-0.5306,-0.5317,-0.5296,-0.5308,-0.5316,-0.5298,-0.5315,-0.5314,-0.5317,-0.5338,-0.5348,-0.5339,-0.5385,-0.5368,-0.5371,-0.5373,-0.5386,-0.5392,-0.5397,-0.533,-0.533,-0.5329,0,0,-0.5328,-0.5327,-0.5343,-0.5345,-0.5347,-0.5342,-0.5346,-0.5345,-0.5344,-0.5361,-0.5348,-0.5358,-0.5373,-0.5376,-0.5379,-0.5417,-0.5407,-0.5419,-0.5443,-0.5457,-0.5461,-0.5466,-0.548,-0.5486,-0.5422,-0.5422,-0.5423,0,-0.5348,-0.5363,-0.5353,-0.5366,-0.5371,-0.5354,-0.5371,-0.5373,-0.5378,-0.5381,-0.5371,-0.5391,-0.5391,-0.5414,-0.5423,-0.5426,-0.5431,-0.542,-0.5461,-0.5466,-0.5469,-0.5483,-0.5489,-0.5424,-0.5424,-0.5424,-0.5424,0,-0.5389,-0.54,-0.5413,-0.5418,-0.5423,-0.5438,-0.5431,-0.5438,-0.5431,-0.5428,-0.5446,-0.5446,-0.5454,-0.5458,-0.5451,-0.5481,-0.5475,-0.5463,-0.5445,-0.5477,-0.549,-0.5495,-0.5427,-0.5426,-0.5425,-0.5425,0,0,-0.5441,-0.544,-0.5445,-0.5448,-0.5449,-0.5457,-0.5472,-0.548,-0.5486,-0.549,-0.5503,-0.5517,-0.5506,-0.551,-0.5503,-0.5515,-0.5547,-0.5502,-0.5502,-0.5511,-0.558,-0.559,-0.5596,-0.554,-0.554,-0.5541,-0.558,0,-0.5477,-0.5502,-0.5493,-0.5519,-0.553,-0.5514,-0.5527,-0.553,-0.5527,-0.5537,-0.5534,-0.5544,-0.5529,-0.5531,-0.5542,-0.554,-0.5561,-0.5537,-0.5552,-0.5553,-0.5554,-0.5603,-0.5613,-0.565,-0.5585,-0.5586,-0.5587,0,-0.5522,-0.5528,-0.5555,-0.5555,-0.5559,-0.5571,-0.5578,-0.5586,-0.5589,-0.5587,-0.5591,-0.5582,-0.5597,-0.5579,-0.56,-0.5585,-0.559,-0.559,-0.5591,-0.5593,-0.5573,-0.5607,-0.5661,-0.5668,-0.5594,-0.5594,-0.5593,0,-0.556,-0.5574,-0.5592,-0.5594,-0.5594,-0.5603,-0.5604,-0.5605,-0.5611,-0.5617,-0.5621,-0.5629,-0.5633,-0.564,-0.5634,-0.562,-0.5657,-0.5637,-0.5656,-0.5656,-0.5665,-0.5665,-0.5722,-0.5667,-0.5667,-0.5667,-0.5666,0,-0.5601,-0.5619,-0.5608,-0.562,-0.5639,-0.5629,-0.5649,-0.5647,-0.5649,-0.5661,-0.5648,-0.5659,-0.5649,-0.5659,-0.5654,-0.5674,-0.5676,-0.5675,-0.5673,-0.5677,-0.5677,-0.5681,-0.5679,-0.5668,-0.5668,-0.5667,-0.5667,0,-0.5647,-0.564,-0.5659,-0.5658,-0.5658,-0.5672,-0.5671,-0.5682,-0.5678,-0.5693,-0.5696,-0.5691,-0.5703,-0.5696,-0.5708,-0.5705,-0.5731,-0.5725,-0.573,-0.5729,-0.5749,-0.5748,-0.5812,-0.582,-0.5758,-0.5759,-0.5759,0,-0.5675,-0.5688,-0.5688,-0.5694,-0.5696,-0.5706,-0.5712,-0.5702,-0.5709,-0.5713,-0.5724,-0.5734,-0.5743,-0.5762,-0.576,-0.5769,-0.5765,-0.5786,-0.5766,-0.5769,-0.5767,-0.5767,-0.5768,-0.5791,-0.5792,-0.5792,-0.5793,0,-0.5726,-0.5722,-0.573,-0.5738,-0.5745,-0.5751,-0.5755,-0.5761,-0.5752,-0.576,-0.5772,-0.5778,-0.579,-0.5802,-0.581,-0.5811,-0.5801,-0.5799,-0.5804,-0.5808,-0.5811,-0.5811,-0.5742,-0.5798,-0.5797,-0.5797,-0.5797,-0.5797,-0.5764,-0.5775,-0.5777,-0.5787,-0.579,-0.5794,-0.5805,-0.5802,-0.5812,-0.5821,-0.5815,-0.5829,-0.5832,-0.5842,-0.5845,-0.5856,-0.5847,-0.5855,-0.5857,-0.5859,-0.5862,-0.5808,-0.5857,-0.5857,-0.5857,-0.5857,-0.5857,0,-0.5816,-0.5816,-0.5825,-0.5832,-0.584,-0.5829,-0.5834,-0.5842,-0.5854,-0.5857,-0.5866,-0.5879,-0.589,-0.5889,-0.5899,-0.5908,-0.5904,-0.5911,-0.5911,-0.5912,-0.5869,-0.5864,-0.5914,-0.5914,-0.5914,-0.5914,-0.5914,-0.5914,-0.5844,-0.5863,-0.5859,-0.5879,-0.5879,-0.5893,-0.5897,-0.5901,-0.5904,-0.592,-0.5929,-0.5927,-0.5929,-0.5939,-0.5949,-0.5948,-0.5953,-0.5962,-0.596,-0.592,-0.5915,-0.5909,-0.5905,-0.5963,-0.5963,-0.6003,-0.6003,-0.6003]},{"header":{"parameterUnit":"m.s-1","parameterCategory":1,"la1":30.2991,"la2":30.254,"lo1":-89.0895,"lo2":-89.0444,"dy":0.0017,"dx":0.0017,"nx":28,"ny":28,"refTime":"2024-06-13T03:00:00:Z","depth":0,"parameterNumber":3,"parameterNumberName":"V-component_of_WINDS"},"data":[0,0,0,0,0,0,0,0,0,0,0,0,0,0,0,0,0,0,0,0,0,0,0,0,0,0,0,0,0,0,0,0,0,0,0,0,0,0,0,0,0,0,0,0,0,0,0,0,0,0,0,0,0,0,0,0,0,0,3.1204,3.1204,0,3.1219,3.1219,3.1219,3.1246,3.1246,3.1247,3.1247,3.1259,3.1259,3.1259,0,0,0,0,0,0,0,0,0,0,0,0,0,3.1196,3.1196,3.1204,3.1204,3.1204,3.1219,3.1219,3.1219,3.1246,3.1246,3.1247,3.1248,3.1259,3.1259,3.1259,0,0,0,0,0,0,0,0,0,0,0,0,0,3.1204,3.1196,3.1204,3.1219,3.1221,3.1219,3.1219,3.122,3.1246,3.1246,3.1247,3.1248,3.1259,3.1259,3.1259,3.1242,0,0,3.1258,3.1258,0,0,0,0,0,0,0,0,3.1203,3.1204,3.1217,3.1218,3.122,3.1231,3.1221,3.1227,3.1245,3.1236,3.1247,3.1248,3.1249,3.125,3.1251,3.1243,3.1243,3.1258,3.1258,3.1258,3.1258,0,0,0,0,0,0,0,3.1203,3.1204,3.121,3.1217,3.1219,3.1225,3.1227,3.1222,3.1238,3.1237,3.1239,3.1241,3.125,3.1251,3.1251,3.1243,3.1258,3.1258,3.1258,3.1258,3.1223,3.1223,0,0,0,0,0,0,3.12,3.1203,3.1209,3.121,3.1214,3.1224,3.1227,3.1227,3.1238,3.1241,3.124,3.1242,3.1251,3.1252,3.1252,3.1233,3.1258,3.1258,3.1258,3.1224,3.1223,3.1222,0,0,0,0,0,0,3.12,3.1201,3.1209,3.1207,3.1209,3.1224,3.1224,3.1227,3.1228,3.124,3.1243,3.1238,3.1252,3.1252,3.1245,3.1234,3.1258,3.1257,3.1225,3.1224,3.1223,3.1196,0,0,0,0,0,0,3.12,3.12,3.1195,3.1207,3.1209,3.1202,3.1223,3.1227,3.1228,3.123,3.1239,3.1242,3.1252,3.1245,3.1245,3.1234,3.1257,3.1226,3.1225,3.1223,3.1198,3.1194,3.1191,0,0,0,0,0,3.1199,3.1185,3.1194,3.1195,3.1202,3.1201,3.1202,3.1216,3.1227,3.1221,3.1229,3.1241,3.1236,3.1244,3.1244,3.1233,3.1227,3.1225,3.1223,3.1199,3.1195,3.1191,0,0,0,0,0,0,3.117,3.1187,3.1197,3.1187,3.1193,3.1206,3.1198,3.121,3.1212,3.1214,3.123,3.1232,3.1223,3.1227,3.1236,3.1218,3.1233,3.1231,3.1215,3.1211,3.1207,3.1206,3.1257,0,0,0,0,0,3.1162,3.1161,3.1176,3.1166,3.1169,3.1183,3.1183,3.1194,3.12,3.1202,3.121,3.1214,3.1214,3.1213,3.1213,3.1199,3.1202,3.1192,3.1188,3.1185,3.1183,3.1177,3.1173,3.1217,3.1217,3.1217,0,0,3.1146,3.1156,3.1154,3.116,3.1166,3.1164,3.1185,3.1181,3.118,3.1201,3.1195,3.1201,3.1207,3.1197,3.1193,3.12,3.1172,3.1183,3.1181,3.118,3.1175,3.1171,3.1167,3.1215,3.1216,3.1216,0,0,3.1116,3.1123,3.1116,3.1122,3.1131,3.1141,3.1139,3.1151,3.1156,3.1151,3.1167,3.1165,3.1163,3.1167,3.1169,3.1143,3.1154,3.1142,3.1123,3.1117,3.1114,3.1111,3.1101,3.1097,3.114,3.114,3.114,0,3.1094,3.1093,3.111,3.1106,3.1109,3.113,3.1122,3.1126,3.1134,3.1135,3.1144,3.1144,3.1149,3.1141,3.1134,3.1135,3.1133,3.1141,3.1113,3.111,3.1108,3.1099,3.1095,3.1139,3.1139,3.1139,3.1139,0,3.1066,3.1065,3.1058,3.1067,3.1068,3.1062,3.1078,3.1078,3.1089,3.1098,3.1092,3.11,3.1102,3.1101,3.1111,3.1094,3.1099,3.111,3.1125,3.1102,3.1093,3.109,3.1137,3.1137,3.1138,3.1138,0,0,3.1015,3.1036,3.1033,3.1037,3.105,3.1049,3.1044,3.1048,3.1048,3.1053,3.1049,3.1048,3.106,3.1062,3.1072,3.1067,3.1046,3.1079,3.108,3.1072,3.1028,3.1019,3.1014,3.1054,3.1053,3.1053,3.1027,0,3.0987,3.0981,3.0997,3.0987,3.0986,3.1007,3.1003,3.101,3.1019,3.1019,3.1029,3.1028,3.1043,3.1044,3.104,3.1049,3.1037,3.1051,3.105,3.1049,3.1047,3.101,3.1,3.0975,3.1024,3.1024,3.1023,0,3.0953,3.0958,3.0948,3.0963,3.0963,3.0959,3.0965,3.0965,3.0973,3.098,3.0984,3.0997,3.0993,3.1009,3.1004,3.1013,3.1014,3.1018,3.1018,3.1017,3.1034,3.1008,3.0968,3.0964,3.1018,3.1019,3.1019,0,3.0917,3.0921,3.0916,3.092,3.0936,3.0933,3.094,3.0949,3.0951,3.0956,3.0957,3.0961,3.0963,3.0965,3.0979,3.0989,3.0972,3.0989,3.0977,3.0976,3.0971,3.0971,3.093,3.0973,3.0973,3.0973,3.0973,0,3.0883,3.0876,3.0901,3.0897,3.089,3.0909,3.0901,3.091,3.0918,3.0917,3.0935,3.0933,3.0952,3.0952,3.0963,3.0957,3.0957,3.0962,3.0965,3.096,3.096,3.096,3.0962,3.0972,3.0972,3.0972,3.0972,0,3.084,3.0857,3.0853,3.087,3.0874,3.0868,3.0882,3.0879,3.089,3.0888,3.0889,3.0905,3.0907,3.0921,3.0925,3.0932,3.0922,3.0928,3.0919,3.0921,3.0908,3.0909,3.0865,3.086,3.0907,3.0906,3.0906,0,3.0817,3.0813,3.083,3.0831,3.0837,3.0838,3.0841,3.0859,3.0861,3.0872,3.0868,3.0871,3.0874,3.0875,3.0887,3.089,3.0896,3.0881,3.0896,3.0892,3.0895,3.0895,3.0895,3.0877,3.0876,3.0876,3.0875,0,3.0774,3.0783,3.0787,3.0793,3.0796,3.0802,3.0809,3.0808,3.0829,3.083,3.0833,3.0835,3.084,3.0843,3.0849,3.0855,3.0868,3.087,3.0868,3.0862,3.0857,3.086,3.0909,3.0871,3.0871,3.0872,3.0872,3.0872,3.074,3.0738,3.075,3.0753,3.0761,3.0768,3.0766,3.0778,3.0781,3.0787,3.0798,3.0799,3.0809,3.0818,3.0823,3.0824,3.0832,3.0828,3.0827,3.0825,3.0823,3.0858,3.0825,3.0825,3.0825,3.0825,3.0825,0,3.0698,3.0708,3.0711,3.0721,3.0724,3.0738,3.0747,3.0748,3.0749,3.0758,3.0761,3.0764,3.0768,3.0781,3.0785,3.0783,3.0789,3.0783,3.0783,3.0785,3.0815,3.0817,3.0778,3.0778,3.0778,3.0778,3.0778,3.0778,3.0676,3.0673,3.0683,3.0684,3.0693,3.0695,3.0699,3.0705,3.0712,3.0715,3.0719,3.0728,3.0738,3.0744,3.0748,3.0751,3.0752,3.0744,3.0749,3.0778,3.0782,3.0786,3.0788,3.0744,3.0744,3.0719,3.0718,3.0718]}]]